Beale AFB, CA

12:04 AM PDT on June 23, 2017 (GMT -0700)
Beale Air Force Base

Weather History for KBAB - January, 2013

Change the Weather History Date:

Tuesday, January 8, 2013

  Actual Average Record
Temperature  
Mean Temperature 44 °F -  
Max Temperature 53 °F 53 °F 62 °F (2006)
Min Temperature 35 °F 40 °F 28 °F (1999)
Degree Days  
Heating Degree Days 21    
Moisture  
Dew Point 40 °F    
Average Humidity 93    
Maximum Humidity 100    
Minimum Humidity 68    
Precipitation  
Precipitation 0.00 in - - ()
Sea Level Pressure  
Sea Level Pressure 30.21 in    
Wind  
Wind Speed 2 mph (East)    
Max Wind Speed 7 mph    
Max Gust Speed -    
Visibility 8 miles    
Events      
Averages and records for this station are not official NWS values.
T = Trace of Precipitation, MM = Missing Value Source: NWS Daily Summary

Daily Weather History Graph

Daily Weather History Graph

Search for Another Location

Airport or City:

Trip Planner

Search our weather history database for the weather conditions in past years. The results will help you decide how hot, cold, wet, or windy it might be!

Date:

Astronomy

Jan. 08, 2013 Rise Set
Actual Time 7:25 AM PST 5:00 PM PST
Civil Twilight 6:55 AM PST 5:30 PM PST
Nautical Twilight 6:22 AM PST 6:03 PM PST
Astronomical Twilight 5:49 AM PST 6:35 PM PST
Moon 4:04 AM PST (1/8) 2:07 PM PST (1/8)
Length of Visible Light 10h 34m
Length of Day
9h 35m
Waning Crescent, 13% of the Moon is Illuminated
Jan 8
Waning Crescent
Jan 11
New
Jan 18
First Quarter
Jan 26
Full
Feb 3
Last Quarter

Hourly Weather History & Observations

Time (PST) Temp. Windchill Dew Point Humidity Pressure Visibility Wind Dir Wind Speed Gust Speed Precip Events Conditions
12:08 AM 37.4 °F - 37.4 °F 100% 30.21 in 5.0 mi Calm Calm - N/A   Clear
12:28 AM 37.4 °F - 37.4 °F 100% 30.21 in 5.0 mi Calm Calm - N/A   Clear
12:38 AM 39.2 °F - 39.2 °F 100% 30.21 in 7.0 mi Calm Calm - N/A   Clear
12:48 AM 37.4 °F - 37.4 °F 100% 30.21 in 7.0 mi Calm Calm - N/A   Clear
12:58 AM 37.6 °F - 37.2 °F 99% 30.21 in 6.0 mi NNE 2.3 mph - N/A   Clear
1:58 AM 38.5 °F - 38.1 °F 99% 30.23 in 8.0 mi ENE 2.3 mph - N/A   Clear
2:58 AM 39.4 °F 36.1 °F 39.0 °F 99% 30.24 in 9.0 mi ESE 4.6 mph - N/A   Clear
3:28 AM 39.2 °F 35.9 °F 39.2 °F 100% 30.21 in 9.0 mi ESE 4.6 mph - N/A   Clear
3:38 AM 39.2 °F 34.2 °F 39.2 °F 100% 30.21 in 10.0 mi ESE 6.9 mph - N/A   Clear
3:58 AM 40.3 °F 36.3 °F 40.1 °F 99% 30.22 in 10.0 mi ESE 5.8 mph - N/A   Clear
4:58 AM 38.1 °F - 37.9 °F 99% 30.21 in 10.0 mi East 2.3 mph - N/A   Clear
5:58 AM 37.6 °F 35.1 °F 37.4 °F 99% 30.22 in 10.0 mi East 3.5 mph - N/A   Clear
6:58 AM 35.6 °F - 35.6 °F 100% 30.25 in 10.0 mi NNE 1.2 mph - N/A   Clear
7:58 AM 36.1 °F - 36.0 °F 99% 30.25 in 7.0 mi ENE 2.3 mph - N/A   Mostly Cloudy
8:58 AM 40.3 °F - 39.9 °F 99% 30.26 in 10.0 mi Calm Calm - N/A   Clear
9:58 AM 46.9 °F - 42.4 °F 84% 30.27 in 10.0 mi Calm Calm - N/A   Clear
10:58 AM 49.3 °F - 42.1 °F 76% 30.25 in 10.0 mi SW 4.6 mph - N/A   Clear
11:58 AM 49.1 °F - 42.1 °F 77% 30.22 in 10.0 mi NNW 2.3 mph - N/A   Clear
12:58 PM 51.6 °F - 42.1 °F 70% 30.20 in 10.0 mi Variable 2.3 mph - N/A   Clear
1:58 PM 52.7 °F - 43.0 °F 70% 30.18 in 9.0 mi SSW 3.5 mph - N/A   Clear
2:58 PM 53.4 °F - 43.2 °F 68% 30.18 in 9.0 mi WSW 1.2 mph - N/A   Clear
3:58 PM 52.3 °F - 44.1 °F 73% 30.17 in 7.0 mi SSE 3.5 mph - N/A   Clear
4:58 PM 47.1 °F - 45.0 °F 92% 30.17 in 5.0 mi SW 4.6 mph - N/A   Clear
5:58 PM 45.3 °F 44.0 °F 45.0 °F 99% 30.15 in 5.0 mi SSE 3.5 mph - N/A   Clear
6:58 PM 42.8 °F - 42.4 °F 99% 30.17 in 5.0 mi East 2.3 mph - N/A   Clear
7:58 PM 40.6 °F 36.7 °F 40.1 °F 98% 30.17 in 5.0 mi East 5.8 mph - N/A   Clear
8:48 PM 42.8 °F - 41.0 °F 93% 30.18 in 7.0 mi SSE 2.3 mph - N/A   Partly Cloudy
8:59 PM 43.2 °F - 41.5 °F 94% 30.19 in 7.0 mi SE 2.3 mph - N/A   Scattered Clouds
9:58 PM 45.1 °F 43.7 °F 42.6 °F 91% 30.18 in 7.0 mi East 3.5 mph - N/A   Scattered Clouds
10:28 PM 42.8 °F - 42.8 °F 100% 30.19 in 7.0 mi Calm Calm - N/A   Overcast
10:58 PM 42.6 °F 39.9 °F 42.3 °F 99% 30.18 in 7.0 mi NE 4.6 mph - N/A   Scattered Clouds
11:58 PM 43.0 °F 40.3 °F 42.8 °F 99% 30.19 in 7.0 mi NE 4.6 mph - N/A   Scattered Clouds